Вернуться в каталог

COSMOS 795

АктивенВоенныеLEO
NORAD 8611·PAYLOAD·🇷🇺 Russia

Запущен Jan 28, 1976 с Plesetsk Cosmodrome

Loading…

Ближайшие Пролёты (ближайшие 24 часа)

TLE

СвежийSource: Space-Track

Эпоха: Sep 14, 2026, 10:38 UTC

1 08611U 76008E   26257.44352413 -.00000026  00000-0 -74773-4 0  9997
2 08611  74.0523  77.4712 0020284 273.3280  86.5448 12.45795560302349

Отслеживайте COSMOS 795 в реальном времени с AllMySat

Download on the App Store